• In Netherlands
  • List of Countries
  • For 7 days
  • Water Temperature
  • Satellite Maps
  • Weather Map
  • Weather Widgets
  • user-avatar
    Login

    Hourly Weather Shaki

    Today, 20 January, Saturday

    Time Temperature Precipitation Wind Pressure Humidity
    00:00 +7°C° 0 mm 2 mps 732 mmHg 44%
    01:00 +7°C° 0 mm 2 mps 732 mmHg 45%
    02:00 +7°C° 0 mm 2 mps 732 mmHg 46%
    03:00 +7°C° 0 mm 2 mps 732 mmHg 43%
    04:00 +7°C° 0 mm 2 mps 733 mmHg 47%
    05:00 +7°C° 0 mm 2 mps 733 mmHg 51%
    06:00 +7°C° 0 mm 2 mps 734 mmHg 56%
    07:00 +7°C° 0 mm 2 mps 734 mmHg 58%
    08:00 +8°C° 0 mm 2 mps 735 mmHg 60%
    09:00 +9°C° 0 mm 2 mps 735 mmHg 61%
    10:00 +9°C° 0.1 mm 2 mps 736 mmHg 60%
    11:00 +10°C° 0.1 mm 2 mps 736 mmHg 58%
    12:00 +12°C° 0.1 mm 2 mps 736 mmHg 57%
    13:00 +12°C° 0 mm 2 mps 737 mmHg 57%
    14:00 +12°C° 0 mm 2 mps 737 mmHg 58%
    15:00 +12°C° 0 mm 2 mps 737 mmHg 58%
    16:00 +10°C° 0 mm 2 mps 737 mmHg 64%
    17:00 +8°C° 0 mm 2 mps 738 mmHg 69%
    18:00 +7°C° 0 mm 2 mps 738 mmHg 75%
    19:00 +7°C° 0 mm 2 mps 738 mmHg 77%
    20:00 +6°C° 0 mm 2 mps 738 mmHg 78%
    21:00 +6°C° 0 mm 1 mps 738 mmHg 80%
    22:00 +6°C° 0 mm 1 mps 738 mmHg 79%
    23:00 +6°C° 0 mm 1 mps 738 mmHg 79%

    Tomorrow, 21 January, Sunday

    Time Temperature Precipitation Wind Pressure Humidity
    00:00 +6°C° 0 mm 1 mps 739 mmHg 78%
    01:00 +5°C° 0 mm 1 mps 738 mmHg 76%
    02:00 +5°C° 0 mm 1 mps 738 mmHg 73%
    03:00 +5°C° 0 mm 1 mps 738 mmHg 71%
    04:00 +5°C° 0 mm 1 mps 738 mmHg 69%
    05:00 +4°C° 0 mm 2 mps 737 mmHg 67%
    06:00 +4°C° 0 mm 2 mps 737 mmHg 65%
    07:00 +5°C° 0 mm 2 mps 737 mmHg 62%
    08:00 +6°C° 0 mm 2 mps 737 mmHg 58%
    09:00 +7°C° 0 mm 2 mps 736 mmHg 55%
    10:00 +9°C° 0 mm 2 mps 736 mmHg 50%
    11:00 +10°C° 0 mm 3 mps 735 mmHg 46%
    12:00 +11°C° 0 mm 3 mps 735 mmHg 41%
    13:00 +12°C° 0 mm 3 mps 735 mmHg 39%
    14:00 +12°C° 0 mm 4 mps 734 mmHg 37%
    15:00 +13°C° 0 mm 4 mps 734 mmHg 36%
    16:00 +11°C° 0 mm 4 mps 735 mmHg 36%
    17:00 +10°C° 0 mm 4 mps 735 mmHg 37%
    18:00 +7°C° 0 mm 4 mps 735 mmHg 38%
    19:00 +7°C° 0 mm 4 mps 736 mmHg 37%
    20:00 +7°C° 0 mm 4 mps 736 mmHg 36%
    21:00 +7°C° 0 mm 4 mps 736 mmHg 35%
    22:00 +8°C° 0 mm 3 mps 736 mmHg 35%
    23:00 +8°C° 0 mm 3 mps 736 mmHg 35%

    Day after tomorrow, 22 January, Monday

    Time Temperature Precipitation Wind Pressure Humidity
    00:00 +8°C° 0 mm 3 mps 736 mmHg 35%
    01:00 +7°C° 0 mm 2 mps 736 mmHg 35%
    02:00 +7°C° 0 mm 2 mps 736 mmHg 35%
    03:00 +7°C° 0 mm 2 mps 736 mmHg 35%
    04:00 +7°C° 0 mm 2 mps 736 mmHg 35%
    05:00 +7°C° 0 mm 2 mps 735 mmHg 34%
    06:00 +7°C° 0 mm 1 mps 735 mmHg 34%
    07:00 +8°C° 0 mm 1 mps 735 mmHg 34%
    08:00 +9°C° 0 mm 1 mps 735 mmHg 34%
    09:00 +10°C° 0 mm 1 mps 735 mmHg 35%
    10:00 +11°C° 0 mm 1 mps 734 mmHg 33%
    11:00 +12°C° 0 mm 1 mps 733 mmHg 32%
    12:00 +13°C° 0 mm 1 mps 733 mmHg 30%
    13:00 +13°C° 0 mm 1 mps 732 mmHg 31%
    14:00 +13°C° 0 mm 1 mps 731 mmHg 32%
    15:00 +13°C° 0 mm 1 mps 731 mmHg 33%
    16:00 +12°C° 0 mm 1 mps 731 mmHg 35%
    17:00 +9°C° 0 mm 2 mps 731 mmHg 37%
    18:00 +8°C° 0 mm 2 mps 730 mmHg 39%
    19:00 +7°C° 0 mm 2 mps 730 mmHg 39%
    20:00 +7°C° 0 mm 2 mps 730 mmHg 39%
    21:00 +7°C° 0 mm 2 mps 730 mmHg 39%
    22:00 +7°C° 0 mm 2 mps 729 mmHg 38%
    23:00 +5°C° 0 mm 3 mps 729 mmHg 36%

    23 January, Tuesday

    Time Temperature Precipitation Wind Pressure Humidity
    00:00 +5°C° 0 mm 3 mps 729 mmHg 35%
    01:00 +5°C° 0 mm 3 mps 729 mmHg 34%
    02:00 +5°C° 0 mm 3 mps 729 mmHg 33%
    03:00 +5°C° 0 mm 3 mps 729 mmHg 31%
    04:00 +5°C° 0 mm 3 mps 729 mmHg 32%
    05:00 +5°C° 0 mm 3 mps 729 mmHg 32%
    06:00 +5°C° 0 mm 4 mps 728 mmHg 32%
    07:00 +6°C° 0 mm 4 mps 729 mmHg 33%
    08:00 +8°C° 0 mm 3 mps 729 mmHg 33%
    09:00 +9°C° 0 mm 3 mps 729 mmHg 34%
    10:00 +11°C° 0 mm 4 mps 729 mmHg 32%
    11:00 +12°C° 0 mm 4 mps 729 mmHg 31%
    12:00 +14°C° 0 mm 5 mps 728 mmHg 29%
    13:00 +14°C° 0 mm 4 mps 728 mmHg 30%
    14:00 +14°C° 0 mm 4 mps 728 mmHg 30%
    15:00 +14°C° 0 mm 4 mps 728 mmHg 31%
    16:00 +12°C° 0 mm 4 mps 729 mmHg 32%
    17:00 +11°C° 0 mm 3 mps 729 mmHg 33%
    18:00 +9°C° 0 mm 3 mps 729 mmHg 34%
    19:00 +9°C° 0 mm 3 mps 729 mmHg 35%
    20:00 +9°C° 0 mm 3 mps 729 mmHg 36%
    21:00 +9°C° 0 mm 3 mps 729 mmHg 37%
    22:00 +8°C° 0 mm 3 mps 729 mmHg 39%
    23:00 +8°C° 0 mm 3 mps 729 mmHg 41%

    24 January, Wednesday

    Time Temperature Precipitation Wind Pressure Humidity
    00:00 +8°C° 0 mm 3 mps 729 mmHg 42%
    01:00 +8°C° 0 mm 3 mps 729 mmHg 44%
    02:00 +8°C° 0 mm 2 mps 729 mmHg 45%
    03:00 +8°C° 0 mm 2 mps 729 mmHg 47%
    04:00 +8°C° 0 mm 3 mps 729 mmHg 50%
    05:00 +8°C° 0 mm 3 mps 729 mmHg 53%
    06:00 +8°C° 0 mm 3 mps 730 mmHg 55%
    07:00 +8°C° 0 mm 3 mps 730 mmHg 55%
    08:00 +7°C° 0 mm 4 mps 731 mmHg 55%
    09:00 +8°C° 0 mm 4 mps 731 mmHg 55%
    10:00 +8°C° 0 mm 5 mps 731 mmHg 54%
    11:00 +9°C° 0 mm 5 mps 732 mmHg 53%
    12:00 +9°C° 0 mm 6 mps 732 mmHg 52%
    13:00 +9°C° 0 mm 5 mps 732 mmHg 51%
    14:00 +10°C° 0 mm 5 mps 732 mmHg 50%
    15:00 +10°C° 0 mm 5 mps 733 mmHg 49%
    16:00 +10°C° 0 mm 4 mps 733 mmHg 51%
    17:00 +8°C° 0 mm 4 mps 734 mmHg 53%
    18:00 +8°C° 0 mm 3 mps 734 mmHg 55%
    19:00 +8°C° 0 mm 3 mps 735 mmHg 56%
    20:00 +7°C° 0 mm 3 mps 736 mmHg 58%
    21:00 +6°C° 0 mm 2 mps 736 mmHg 60%
    22:00 +6°C° 0 mm 2 mps 736 mmHg 61%
    23:00 +5°C° 0 mm 2 mps 737 mmHg 62%

    25 January, Thursday

    Time Temperature Precipitation Wind Pressure Humidity
    00:00 +6°C° 0 mm 1 mps 737 mmHg 63%
    01:00 +5°C° 0 mm 1 mps 738 mmHg 62%
    02:00 +5°C° 0 mm 1 mps 738 mmHg 62%
    03:00 +5°C° 0 mm 1 mps 739 mmHg 62%
    04:00 +4°C° 0 mm 1 mps 739 mmHg 61%
    05:00 +4°C° 0 mm 1 mps 740 mmHg 60%
    06:00 +4°C° 0 mm 1 mps 740 mmHg 59%
    07:00 +5°C° 0 mm 1 mps 740 mmHg 58%
    08:00 +6°C° 0 mm 1 mps 741 mmHg 56%
    09:00 +6°C° 0 mm 1 mps 741 mmHg 55%
    10:00 +6°C° 0 mm 2 mps 741 mmHg 55%
    11:00 +7°C° 0 mm 2 mps 741 mmHg 55%
    12:00 +7°C° 0 mm 2 mps 741 mmHg 56%
    13:00 +7°C° 0 mm 2 mps 741 mmHg 56%
    14:00 +8°C° 0 mm 2 mps 741 mmHg 57%
    15:00 +8°C° 0 mm 2 mps 741 mmHg 58%
    16:00 +7°C° 0 mm 2 mps 741 mmHg 63%
    17:00 +6°C° 0 mm 2 mps 742 mmHg 69%
    18:00 +5°C° 0 mm 2 mps 742 mmHg 74%
    19:00 +4°C° 0 mm 2 mps 743 mmHg 75%
    20:00 +4°C° 0 mm 2 mps 743 mmHg 76%
    21:00 +4°C° 0 mm 2 mps 743 mmHg 77%
    22:00 +4°C° 0 mm 2 mps 743 mmHg 77%
    23:00 +3°C° 0 mm 2 mps 743 mmHg 78%
    Show more